Tracking 17560 objects as of 11-February-2016
HD Live streaming from Space Station
objects crossing your sky now

CZ-4 DEB

Track CZ-4 DEB now!
10-day predictions


NORAD ID: 26650
Int'l Code: 1999-057LG
Perigee: 634.5 km
Apogee: 649.8 km
Inclination: 98.6 °
Period: 97.4 minutes
Semi major axis: 7013 km
RCS: 0.0056 m2 (small)
Launch date: October 14, 1999
Source: People's Republic of China (PRC)
Launch site: Taiyaun Space Center, China (TSC)

Note: This is SATELLITE DEBRIS
Your satellite tracking list
Your tracking list is empty





NASA's NSSDC Master Catalog

Two Line Element Set (TLE):
1 26650U 99057LG  16040.63713947 +.00001796 +00000-0 +25565-3 0  9999
2 26650 098.5813 088.8819 0010841 327.5815 161.3008 14.7828368837163
Source of the keplerian elements: AFSPC

N2YO: 756